Back to catalog

STARLINK-37283

AliveCommunicationsVLEO
NORAD 68568·PAYLOAD·🇺🇸 United States

Launched Apr 2, 2026 from Cape Canaveral Space Force Station

Loading…

Next Passes (next 24 hours)

TLE

FreshSource: CelesTrak SupGP

Epoch: Sep 14, 2026, 15:50 UTC

1 68568C 26070AC  26257.66020833  .00047600  00000+0  14069-2 0  2573
2 68568  53.1590 201.3447 0001369  87.9428   3.6748 15.34353366    14

Track STARLINK-37283 in real time with AllMySat

Download on the App Store